{"data":{"norad_id":46331,"epoch":"2026-07-27T19:02:11.457024Z","epoch_age_seconds":4748480,"freshness":"OLD","line1":"1 46331U 20062G   26208.79318816  .09105687  12467-4  55693-3 0  9999","line2":"2 46331  53.0124 358.5137 0010085 294.6553  65.3443 16.41195125326959","mean_motion":16.41195125,"eccentricity":0.0010085,"inclination_deg":53.0124,"raan_deg":358.5137,"arg_perigee_deg":294.6553,"mean_anomaly_deg":65.3443,"bstar":0.00055693,"rev_number":32695,"period_min":87.740938177598,"perigee_km":156.0288794812,"apogee_km":169.22159691564,"semimajor_km":6540.7622381984,"source":"CELESTRAK","updated_at":"2026-07-28T09:01:44.327089Z"}}